Weather in Porto Alegre

Brazil     30°04′07″S   51°12′39″W
temp.,
°C
wind,
m/s
gust,
m/s
humid.,
%
clouds,
%
prec.,
mm/h
press.,
hPa
HPBL,
m
14 june, mon
mon1400:00+14ne11770 0.0 102116
03:00+13nnw11840 0.0 102019
06:00+12nnw22890 0.0 102036
09:00+14nnw23730 0.0 1021144
12:00+20wnw23520 0.0 1021415
15:00+21w34520 0.0 1019590
18:00+17nw22740 0.0 101916
21:00+15wnw22820 0.0 102143
15 june, tue
tue1500:00+14nw23870 0.0 102171
03:00+13wnw12910 0.0 102170
06:00+13sw11920 0.0 102133
09:00+14s24845 0.0 1023299
12:00+16s358296 0.1 1023636
15:00+16s3677100 0.2 1022651
18:00+14s3779100 0.1 1023617
21:00+13s4873100 0.1 1024653
16 june, wed
wed1600:00+13s4869100 0.0 1025745
03:00+12s3762100 0.0 1024753
06:00+12s376396 0.0 1024846
09:00+12s376320 0.0 1025598
12:00+15s445084 0.0 10251359
15:00+14sse4552100 0.0 10241441
18:00+12sse4764100 0.0 1024674
21:00+12sse3670100 0.1 1026585
17 june, thu
thu1700:00+12s2669100 0.0 1025402
03:00+11s2574100 0.1 1025352
06:00+10s368190 0.1 1025272
09:00+11sse248097 0.1 1026395
12:00+13sse227198 0.0 1025785
15:00+14sse2371100 0.1 1023632
18:00+13sse2575100 0.0 1024409
21:00+13s1375100 0.0 1024201
18 june, fri
fri1800:00+12s258098 0.1 1024312
03:00+12s248349 0.1 1024236
06:00+10ssw2386100 0.0 1024113
09:00+11s2476100 0.0 1025295
12:00+14ssw2360100 0.0 1025882
15:00+15sse3358100 0.0 10231141
18:00+12sse367794 0.1 1024453
21:00+11s3679100 0.1 1025407